Location: Usti nad Labem
(50.6670°N, 14.0330°E)
Time: 23:45:52
(UTC+02:00)

ISS - Visible Passes

Search period start: 05 May 2021 00:00
Search period end: 15 May 2021 00:00
Orbit: 418 x 421 km, 51.6° (Epoch: 05 May)

Date Brightness Start Highest point End Pass type
(mag) Time Alt. Az. Time Alt. Az. Time Alt. Az.
05 May -1.0 02:01:16 11° E 02:01:16 11° E 02:01:31 10° E visible
05 May -3.8 03:34:12 34° SW 03:35:30 67° SSE 03:38:52 10° ENE visible
06 May -3.4 02:48:19 49° SE 02:48:19 49° SE 02:51:25 10° E visible
06 May -3.6 04:21:31 10° W 04:24:54 75° N 04:28:18 10° E visible
07 May -1.9 02:02:24 22° E 02:02:24 22° E 02:03:55 10° E visible
07 May -3.7 03:35:20 21° W 03:37:27 83° N 03:40:51 10° ENE visible
08 May -3.9 02:49:24 57° WSW 02:50:00 84° SSE 02:53:24 10° ENE visible
08 May -3.5 04:23:31 10° W 04:26:55 75° N 04:30:18 10° E visible
09 May -3.1 02:03:25 45° E 02:03:25 45° E 02:05:58 10° ENE visible
09 May -3.6 03:36:21 12° W 03:39:27 72° N 03:42:50 10° E visible
10 May -1.6 01:17:25 18° E 01:17:25 18° E 01:18:30 10° E visible
10 May -3.6 02:50:21 28° W 02:51:58 75° N 02:55:21 10° E visible
10 May -3.8 04:25:29 10° WNW 04:28:53 85° SSW 04:32:16 10° ESE visible
11 May -3.8 02:04:19 77° WNW 02:04:30 83° NNW 02:07:54 10° ENE visible
11 May -3.7 03:38:01 10° WNW 03:41:26 82° N 03:44:49 10° E visible
12 May -2.7 01:18:14 38° E 01:18:14 38° E 01:20:26 10° ENE visible
12 May -3.6 02:51:09 14° W 02:53:57 75° N 02:57:20 10° E visible
12 May -3.6 04:27:26 10° W 04:30:44 51° SSW 04:34:01 10° SE visible
13 May -1.6 00:32:03 17° E 00:32:03 17° E 00:32:59 10° ENE visible
13 May -3.6 02:04:58 30° W 02:06:28 72° N 02:09:52 10° E visible
13 May -3.8 03:39:58 10° WNW 03:43:20 68° SSW 03:46:42 10° ESE visible
14 May -3.7 01:18:33 62° WNW 01:18:59 75° N 01:22:22 10° E visible
14 May -3.9 02:52:30 10° WNW 02:55:53 85° SSW 02:59:17 10° ESE visible
14 May -2.7 04:29:32 10° W 04:32:26 26° SW 04:35:19 10° SSE visible
14 May -3.3 22:51:43 10° SW 22:54:50 36° SSE 22:57:59 10° E visible
